Date,TemperatureHighF,TemperatureAvgF,TemperatureLowF,DewpointHighF,DewpointAvgF,DewpointLowF,HumidityHigh,HumidityAvg,HumidityLow,PressureMaxIn,PressureMinIn,WindSpeedMaxMPH,WindSpeedAvgMPH,GustSpeedMaxMPH,PrecipitationSumIn
2013-2-1,30,27,25,24,22,13,91,80,56,0.00,40.00,21,11,34,0.00
2013-2-2,39,29,22,21,16,10,90,57,39,0.00,40.00,7,2,14,0.00
2013-2-3,36,31,26,14,6,-2,55,36,25,0.00,40.00,10,4,20,0.00
2013-2-4,33,28,24,16,13,10,70,52,42,0.00,40.00,18,8,28,0.00
2013-2-5,45,37,28,23,15,9,52,41,30,0.00,40.00,5,3,13,0.00
2013-2-6,37,28,20,21,16,10,82,60,31,0.00,40.00,16,7,28,0.00
2013-2-7,35,26,19,15,7,-9,82,48,23,0.00,40.00,5,3,26,0.00
2013-2-8,33,24,20,25,20,14,100,83,60,0.00,40.00,8,3,26,0.00
2013-2-9,24,17,14,21,16,12,99,94,86,0.00,40.00,18,5,30,0.00
2013-2-10,23,15,11,19,13,10,97,89,82,0.00,40.00,14,4,25,0.00
2013-2-11,19,11,6,14,7,0,97,84,61,0.00,40.00,13,6,21,0.00
2013-2-12,20,14,9,18,12,2,100,90,69,0.00,40.00,14,9,24,0.00
2013-2-13,28,22,17,24,20,17,100,94,82,0.00,40.00,17,9,36,0.00
2013-2-14,26,22,20,22,19,13,100,85,70,0.00,40.00,22,13,43,0.00
2013-2-15,36,25,19,26,19,16,93,79,59,0.00,40.00,13,5,21,0.00
2013-2-16,42,33,22,18,12,0,78,44,22,0.00,40.00,6,3,16,0.00
2013-2-17,36,26,14,22,16,1,88,67,22,0.00,40.00,22,13,43,0.00
2013-2-18,28,19,13,17,10,-5,94,70,24,0.00,40.00,10,4,19,0.00
2013-2-19,36,29,24,16,12,4,63,48,35,0.00,40.00,13,5,36,0.00
2013-2-20,31,24,20,23,19,13,100,83,64,0.00,40.00,19,8,29,0.00
2013-2-21,21,16,12,19,13,9,100,89,78,0.00,40.00,22,13,34,0.00
2013-2-22,17,14,11,13,11,8,95,85,77,0.00,40.00,17,10,31,0.00
2013-2-23,25,16,11,24,14,8,98,90,81,0.00,40.00,31,13,54,0.00
2013-2-24,21,13,9,15,10,7,92,85,77,0.00,40.00,16,8,34,0.00
2013-2-25,29,18,10,17,10,2,91,69,58,0.00,40.00,18,6,31,0.00
2013-2-26,15,13,10,14,10,7,99,90,82,0.00,40.00,20,15,38,0.00
2013-2-27,25,16,8,12,7,2,83,68,47,0.00,40.00,9,4,19,0.00
2013-2-28,27,24,16,21,12,4,78,62,49,0.00,40.00,15,9,29,0.00